When you browse on this site, cookies collect data to enhance your experience and personalize the content and advertising you see.
Visit our Privacy Policy to learn more. By continuing to use the site, you agree to this use of cookies and data.
EN

Hourly Weather Zabawka

Today, 11 August, Tuesday

Time Temperature Precipitation Wind Pressure Humidity
00:00 +18°C° 0 mm 2 mps 750 mmHg 92%
01:00 +18°C° 0 mm 2 mps 750 mmHg 93%
02:00 +18°C° 0 mm 2 mps 750 mmHg 94%
03:00 +17°C° 0 mm 2 mps 750 mmHg 94%
04:00 +17°C° 0 mm 3 mps 750 mmHg 94%
05:00 +17°C° 0 mm 3 mps 750 mmHg 89%
06:00 +18°C° 0 mm 3 mps 750 mmHg 84%
07:00 +19°C° 0 mm 3 mps 751 mmHg 79%
08:00 +20°C° 0 mm 3 mps 751 mmHg 73%
09:00 +22°C° 0 mm 4 mps 751 mmHg 67%
10:00 +23°C° 0 mm 4 mps 751 mmHg 61%
11:00 +25°C° 0 mm 4 mps 751 mmHg 60%
12:00 +25°C° 0 mm 4 mps 751 mmHg 58%
13:00 +26°C° 0 mm 4 mps 751 mmHg 57%
14:00 +25°C° 0 mm 5 mps 751 mmHg 58%
15:00 +25°C° 0 mm 5 mps 751 mmHg 59%
16:00 +23°C° 0 mm 5 mps 751 mmHg 61%
17:00 +21°C° 0 mm 5 mps 751 mmHg 66%
18:00 +19°C° 0 mm 4 mps 751 mmHg 70%
19:00 +18°C° 0 mm 4 mps 751 mmHg 75%
20:00 +17°C° 0 mm 3 mps 752 mmHg 77%
21:00 +16°C° 0 mm 3 mps 752 mmHg 78%
22:00 +14°C° 0 mm 3 mps 752 mmHg 80%
23:00 +13°C° 0 mm 3 mps 752 mmHg 81%

Tomorrow, 12 August, Wednesday

Time Temperature Precipitation Wind Pressure Humidity
00:00 +13°C° 0 mm 3 mps 752 mmHg 83%
01:00 +13°C° 0 mm 2 mps 752 mmHg 85%
02:00 +13°C° 0 mm 2 mps 752 mmHg 86%
03:00 +13°C° 0 mm 2 mps 752 mmHg 88%
04:00 +12°C° 0 mm 2 mps 752 mmHg 89%
05:00 +14°C° 0 mm 2 mps 753 mmHg 84%
06:00 +15°C° 0 mm 2 mps 753 mmHg 80%
07:00 +16°C° 0 mm 2 mps 753 mmHg 75%
08:00 +18°C° 0 mm 2 mps 753 mmHg 70%
09:00 +19°C° 0 mm 2 mps 753 mmHg 65%
10:00 +21°C° 0 mm 3 mps 753 mmHg 59%
11:00 +21°C° 0 mm 3 mps 753 mmHg 56%
12:00 +22°C° 0 mm 3 mps 753 mmHg 54%
13:00 +24°C° 0 mm 3 mps 753 mmHg 51%
14:00 +22°C° 0 mm 3 mps 753 mmHg 52%
15:00 +22°C° 0 mm 3 mps 752 mmHg 53%
16:00 +22°C° 0 mm 3 mps 752 mmHg 55%
17:00 +20°C° 0 mm 3 mps 752 mmHg 62%
18:00 +18°C° 0 mm 3 mps 752 mmHg 69%
19:00 +17°C° 0 mm 3 mps 752 mmHg 77%
20:00 +16°C° 0 mm 3 mps 752 mmHg 79%
21:00 +15°C° 0 mm 2 mps 752 mmHg 81%
22:00 +14°C° 0 mm 2 mps 752 mmHg 84%
23:00 +14°C° 0 mm 2 mps 752 mmHg 85%

Day after tomorrow, 13 August, Thursday

Time Temperature Precipitation Wind Pressure Humidity
00:00 +13°C° 0 mm 2 mps 752 mmHg 87%
01:00 +13°C° 0 mm 2 mps 752 mmHg 88%
02:00 +12°C° 0 mm 1 mps 752 mmHg 89%
03:00 +12°C° 0 mm 1 mps 752 mmHg 90%
04:00 +12°C° 0 mm 1 mps 752 mmHg 91%
05:00 +13°C° 0 mm 1 mps 752 mmHg 86%
06:00 +15°C° 0 mm 1 mps 752 mmHg 81%
07:00 +16°C° 0 mm 1 mps 752 mmHg 76%
08:00 +19°C° 0 mm 1 mps 752 mmHg 70%
09:00 +21°C° 0 mm 1 mps 752 mmHg 64%
10:00 +22°C° 0 mm 1 mps 752 mmHg 59%
11:00 +23°C° 0 mm 1 mps 751 mmHg 55%
12:00 +22°C° 0 mm 0 mps 751 mmHg 52%
13:00 +23°C° 0 mm 0 mps 751 mmHg 48%
14:00 +23°C° 0 mm 0 mps 750 mmHg 48%
15:00 +24°C° 0 mm 1 mps 750 mmHg 48%
16:00 +24°C° 0 mm 1 mps 750 mmHg 48%
17:00 +21°C° 0 mm 2 mps 750 mmHg 57%
18:00 +20°C° 0 mm 2 mps 750 mmHg 66%
19:00 +18°C° 0 mm 3 mps 750 mmHg 74%
20:00 +17°C° 0 mm 3 mps 750 mmHg 77%
21:00 +16°C° 0 mm 3 mps 750 mmHg 79%
22:00 +14°C° 0 mm 3 mps 750 mmHg 81%
23:00 +14°C° 0 mm 3 mps 750 mmHg 83%

14 August, Friday

Time Temperature Precipitation Wind Pressure Humidity
00:00 +14°C° 0 mm 2 mps 750 mmHg 85%
01:00 +14°C° 0 mm 2 mps 750 mmHg 86%
02:00 +14°C° 0 mm 2 mps 750 mmHg 87%
03:00 +13°C° 0 mm 2 mps 750 mmHg 88%
04:00 +13°C° 0 mm 2 mps 750 mmHg 89%
05:00 +13°C° 0 mm 3 mps 750 mmHg 84%
06:00 +16°C° 0 mm 3 mps 750 mmHg 80%
07:00 +17°C° 0 mm 3 mps 750 mmHg 75%
08:00 +19°C° 0 mm 3 mps 750 mmHg 69%
09:00 +20°C° 0 mm 3 mps 750 mmHg 64%
10:00 +22°C° 0 mm 3 mps 750 mmHg 58%
11:00 +24°C° 0 mm 3 mps 750 mmHg 55%
12:00 +24°C° 0 mm 3 mps 750 mmHg 52%
13:00 +25°C° 0 mm 3 mps 749 mmHg 48%
14:00 +25°C° 0 mm 3 mps 749 mmHg 50%
15:00 +25°C° 0 mm 3 mps 749 mmHg 51%
16:00 +24°C° 0 mm 3 mps 749 mmHg 52%
17:00 +22°C° 0 mm 3 mps 749 mmHg 57%
18:00 +20°C° 0 mm 3 mps 749 mmHg 63%
19:00 +18°C° 0 mm 2 mps 749 mmHg 68%
20:00 +17°C° 0 mm 3 mps 749 mmHg 70%
21:00 +17°C° 0 mm 3 mps 749 mmHg 72%
22:00 +16°C° 0 mm 3 mps 749 mmHg 74%
23:00 +16°C° 0 mm 3 mps 749 mmHg 77%

15 August, Saturday

Time Temperature Precipitation Wind Pressure Humidity
00:00 +14°C° 0 mm 3 mps 749 mmHg 80%
01:00 +14°C° 0 mm 3 mps 749 mmHg 83%
02:00 +13°C° 0 mm 3 mps 749 mmHg 84%
03:00 +13°C° 0 mm 3 mps 749 mmHg 86%
04:00 +13°C° 0 mm 3 mps 749 mmHg 87%
05:00 +14°C° 0 mm 3 mps 749 mmHg 83%
06:00 +16°C° 0 mm 3 mps 749 mmHg 79%
07:00 +17°C° 0 mm 3 mps 749 mmHg 74%
08:00 +19°C° 0 mm 4 mps 749 mmHg 68%
09:00 +21°C° 0 mm 4 mps 749 mmHg 62%
10:00 +22°C° 0 mm 4 mps 749 mmHg 56%
11:00 +23°C° 0 mm 4 mps 749 mmHg 53%
12:00 +25°C° 0 mm 4 mps 749 mmHg 51%
13:00 +25°C° 0 mm 3 mps 748 mmHg 49%
14:00 +25°C° 0 mm 3 mps 748 mmHg 49%
15:00 +25°C° 0 mm 3 mps 748 mmHg 50%
16:00 +25°C° 0 mm 3 mps 748 mmHg 50%
17:00 +22°C° 0 mm 3 mps 748 mmHg 57%
18:00 +20°C° 0 mm 2 mps 748 mmHg 64%
19:00 +19°C° 0 mm 2 mps 748 mmHg 71%
20:00 +18°C° 0 mm 2 mps 748 mmHg 74%
21:00 +17°C° 0 mm 2 mps 748 mmHg 77%
22:00 +16°C° 0 mm 2 mps 748 mmHg 80%
23:00 +15°C° 0 mm 2 mps 748 mmHg 80%

16 August, Sunday

Time Temperature Precipitation Wind Pressure Humidity
00:00 +15°C° 0 mm 2 mps 748 mmHg 81%
01:00 +14°C° 0 mm 1 mps 748 mmHg 82%
02:00 +14°C° 0 mm 2 mps 748 mmHg 83%
03:00 +14°C° 0 mm 2 mps 748 mmHg 84%
04:00 +13°C° 0 mm 2 mps 748 mmHg 85%
05:00 +15°C° 0 mm 2 mps 748 mmHg 80%
06:00 +17°C° 0 mm 2 mps 748 mmHg 74%
07:00 +18°C° 0 mm 2 mps 748 mmHg 69%
08:00 +20°C° 0 mm 2 mps 748 mmHg 64%
09:00 +21°C° 0 mm 2 mps 749 mmHg 59%
10:00 +24°C° 0 mm 3 mps 749 mmHg 54%
11:00 +25°C° 0 mm 2 mps 749 mmHg 51%
12:00 +26°C° 0 mm 2 mps 748 mmHg 49%
13:00 +26°C° 0 mm 2 mps 748 mmHg 46%
14:00 +26°C° 0 mm 2 mps 748 mmHg 47%
15:00 +26°C° 0 mm 2 mps 748 mmHg 49%
16:00 +26°C° 0 mm 2 mps 748 mmHg 50%
17:00 +24°C° 0 mm 2 mps 748 mmHg 56%
18:00 +23°C° 0 mm 2 mps 748 mmHg 63%
19:00 +20°C° 0 mm 2 mps 748 mmHg 70%
20:00 +19°C° 0 mm 2 mps 748 mmHg 75%
21:00 +18°C° 0 mm 2 mps 748 mmHg 80%
22:00 +17°C° 0 mm 2 mps 749 mmHg 85%
23:00 +17°C° 0 mm 2 mps 749 mmHg 86%
Show more